[Iaude] MPEC N135: 2024 NH3 [a=1.56,e=0.43,i=5.3,H=22.7]
    mpec at cfa.harvard.edu 
    mpec at cfa.harvard.edu
       
    Fri Jul 12 12:55:41 EDT 2024
    
    
  
M.P.E.C. 2024-N135                                Issued 2024 July 12, 16:53 UT
     The Minor Planet Electronic Circulars contain information on unusual
         minor planets, routine data on comets and natural satellites,
         and occasional editorial announcements.  They are published
    on behalf of Division F of the International Astronomical Union by the
          Minor Planet Center, Smithsonian Astrophysical Observatory,
                          Cambridge, MA 02138, U.S.A.
			  
             Prepared using the Tamkin Foundation Computer Network
                              MPC at CFA.HARVARD.EDU
            URL https://www.minorplanetcenter.net/    ISSN 1523-6714
                                    2024 NH3                                    
Observations:
     K24N03H  C2024 07 06.31613714 57 32.175-16 23 01.48         17.54GVEN135F51
     K24N03H  C2024 07 06.32714214 57 51.223-16 23 04.75         18.61GVEN135F51
     K24N03H  C2024 07 06.33814614 58 10.302-16 23 07.74         18.16GVEN135F51
     K24N03H  C2024 07 06.34939914 58 29.765-16 23 10.55               VEN135F51
     K24N03H* C2024 07 11.34318216 51 05.258-14 59 30.88         17.72oVEN135T08
     K24N03H  C2024 07 11.34641516 51 08.189-14 59 25.40         17.60oVEN135T08
     K24N03H  C2024 07 11.34887116 51 10.375-14 59 21.66         17.47oVEN135T08
     K24N03H  C2024 07 11.35170316 51 12.912-14 59 17.63         17.57oVEN135T08
     K24N03H  C2024 07 11.35220316 51 13.330-14 59 16.44         17.37oVEN135T08
     K24N03H  C2024 07 11.36794716 51 27.358-14 58 51.74         19.00oVEN135T08
     K24N03H KC2024 07 11.86454316 58 59.95 -14 46 39.2          17.7 GVEN135L01
     K24N03H IC2024 07 11.87138516 59 05.75 -14 46 27.4          17.6 GVEN135L01
     K24N03H KC2024 07 11.87306716 59 07.11 -14 46 25.3          17.7 GVEN135L01
     K24N03H KC2024 07 11.87433116 59 08.15 -14 46 23.8          17.7 GVEN135L01
     K24N03H KB2024 07 11.89241 16 59 23.24 -14 45 55.7          19.2 RZEN135106
     K24N03H KB2024 07 11.89447 16 59 25.03 -14 45 53.4          19.5 RZEN135106
     K24N03H KB2024 07 11.89653 16 59 26.73 -14 45 49.5                ZEN135106
     K24N03H KB2024 07 11.89859 16 59 28.58 -14 45 46.4          18.1 RZEN135106
     K24N03H 6C2024 07 11.90092 16 59 32.13 -14 45 33.3          19.5 GVEN135Z84
     K24N03H 6C2024 07 11.90292 16 59 33.82 -14 45 30.0          19.1 GVEN135Z84
     K24N03H KC2024 07 11.90319 16 59 32.78 -14 45 37.8          18.5 VqEN135126
     K24N03H KC2024 07 11.90551 16 59 34.79 -14 45 33.6          18.5 VqEN135126
     K24N03H KC2024 07 11.90784 16 59 36.59 -14 45 30.6          18.5 VqEN135126
     K24N03H KB2024 07 11.91201 16 59 38.63 -14 45 23.4          18.6 VZEN135M45
     K24N03H KC2024 07 11.91419216 59 41.83 -14 45 18.9          18.1 GVEN135G17
     K24N03H KB2024 07 11.91813 16 59 43.77 -14 45 13.1          18.5 VZEN135M45
     K24N03H KC2024 07 11.91982516 59 46.50 -14 45 09.8          18.4 GVEN135G17
     K24N03H KB2024 07 11.92184 16 59 46.88 -14 45 07.4          18.2 VZEN135M45
     K24N03H KC2024 07 11.92544316 59 51.26 -14 45 01.2          18.5 GVEN135G17
     K24N03H IC2024 07 11.92676416 59 52.08 -14 45 01.5                XEN135595
     K24N03H KC2024 07 11.93701617 00 00.67 -14 44 45.7          18.7 GXEN135595
     K24N03H |C2024 07 12.01654617 01 15.310-14 40 26.80         18.2 GVEN135807
     K24N03H |C2024 07 12.01874017 01 17.110-14 40 23.50         18.4 GVEN135807
     K24N03H |C2024 07 12.02094017 01 18.920-14 40 20.30         18.3 GVEN135807
     K24N03H KC2024 07 12.10527217 02 29.04 -14 40 20.5          19.4 GVEN135H21
     K24N03H KC2024 07 12.10645717 02 30.02 -14 40 18.5          19.9 GVEN135H21
     K24N03H KC2024 07 12.10784017 02 31.13 -14 40 16.8          19.6 GVEN135H21
     K24N03H KC2024 07 12.10955217 02 32.49 -14 40 13.8          20.0 GVEN135H21
     K24N03H KC2024 07 12.11064617 02 33.38 -14 40 12.6          19.9 GVEN135H21
     K24N03H KB2024 07 12.12548817 02 39.950-14 37 58.92         19.1 VZEN135Y05
     K24N03H KB2024 07 12.12819017 02 42.115-14 37 54.62         18.8 VZEN135Y05
     K24N03H KB2024 07 12.13081117 02 44.220-14 37 50.37         18.6 VZEN135Y05
     K24N03H KC2024 07 12.17144117 03 24.29 -14 38 34.0          18.2 GXEN135858
     K24N03H KC2024 07 12.17770817 03 29.29 -14 38 24.6          17.9 GXEN135858
     K24N03H KC2024 07 12.18491717 03 35.03 -14 38 13.8          17.8 GXEN135858
     K24N03H KC2024 07 12.30652 17 05 13.121-14 35 14.86         19.0 GVEN135U52
     K24N03H KC2024 07 12.30972 17 05 15.734-14 35 09.24         18.6 GVEN135U52
     K24N03H KC2024 07 12.39803017 06 31.507-14 30 23.80         18.6 GVEN135474
     K24N03H KC2024 07 12.39942517 06 32.580-14 30 21.89         18.6 GVEN135474
     K24N03H KC2024 07 12.40360517 06 35.844-14 30 15.37         18.7 GVEN135474
     K24N03H KC2024 07 12.40430217 06 36.370-14 30 14.72         18.9 GVEN135474
     K24N03H KC2024 07 12.49443517 07 49.49 -14 30 22.4          17.8 GVEN135900
     K24N03H KB2024 07 12.50494817 07 57.428-14 30 07.46         18.0 VZEN135Q06
     K24N03H KC2024 07 12.50871817 08 00.34 -14 30 00.6                VEN135900
     K24N03H KB2024 07 12.51168617 08 02.494-14 29 57.02         17.6 VZEN135Q06
     K24N03H KB2024 07 12.51823817 08 07.519-14 29 47.24         18.5 VZEN135Q06
     K24N03H KB2024 07 12.53740817 08 22.027-14 29 17.90         19.0 VZEN135Q06
     K24N03H KB2024 07 12.54489617 08 27.709-14 29 06.68         18.2 VZEN135Q06
     K24N03H KB2024 07 12.55238317 08 33.383-14 28 55.63         18.9 VZEN135Q06
Observer details:
106 Crni Vrh.  Observer H. Mikuz.  0.60-m f/3.3 reflector + CMO.
126 Monte Viseggi.  Observers L. Sannino, A. Mancuso, S. Mercanti, G.
    Tavaglione, D. Agnetti.  Measurer L. Sannino.  0.40-m f/7.5 reflector +
    CCD.
474 Mount John Observatory, Lake Tekapo.  Observers A. C. Gilmore, P. M.
    Kilmartin.  Measurer P. M. Kilmartin.  0.6-m f/6.3 Reflector + CCD.
595 Farra d'Isonzo.  Observers G. Ierman, G. Panterotto, E. Pettarin.
    Measurer E. Pettarin.  0.61-m f/4.5 reflector + CCD.
807 Cerro Tololo Observatory, La Serena.  Observers T. Linder, R. Holmes.
    0.61-m f/6.8 Ritchey-Chretien + CCD.
858 Tebbutt Observatory, Edgewood.  Observer F. B. Zoltowski.  0.51-m f/8.1
    Schmidt-Cassegrain + CCD.
900 Moriyama.  Observer Y. Ikari.  0.26-m f/7.0 reflector + CMO.
F51 Pan-STARRS 1, Haleakala.  Observers J. Herman, T. Lowe, P. Minguez, A.
    Schultz, I. Smith.  Measurers K. Chambers, T. de Boer, J. Fairlamb, H.
    Gao, M. Huber, C.-C. Lin, E. Magnier, Y. Ramanjooloo, R. Wainscoat, R.
    Weryk.  1.8-m Ritchey-Chretien + CCD.
G17 BAS Observatory, Scandicci.  Observer L. Grazzini.  0.20-m f/10 Schmidt-
    Cassegrain + CCD + f/6.3 focal reducer.
H21 Astronomical Research Observatory, Westfield.  Observer R. Holmes.
    Measurers T. Linder, R. Holmes.  0.81-m f/4.0 astrograph + CCD.
L01 Visnjan Observatory, Tican.  Observers K. Korlevic, I. Lyon.  Measurer K.
    Korlevic.  1.0-m f/2.9 reflector + CCD.
M45 Starhopper Observatory, Sfantu Gheorghe.  Observer F. Ursache.  0.41-m
    f/7.5 reflector + CMO.
Q06 Tarui Observatory, Tarui.  Observer H. Watanabe.  0.35-m f/1.9 Schmidt-
    Cassegrain + CMO.
T08 ATLAS-MLO, Mauna Loa.  Observers L. Denneau, R. Siverd, J. Tonry, H.
    Weiland.  Measurers L. Denneau, N. Erasmus, A. Fitzsimmons, J. Robinson,
    R. Siverd, J. Tonry, H. Weiland.  0.5-m Reflector + CCD.
U52 Shasta Valley Observatory, Grenada.  Observers J. E. Rogers, B. Haeusler.
    Measurers J. E. Rogers, D. Parrott.  0.30-m f/5.2 Helin Telescope + CCD.
Y05 SONEAR Wykrota-CEAMIG, Serra da Piedade.  Observers C. Jacques, A.
    Caetano, E. Pimentel.  Measurer C. Jacques.  0.45-m f/2.9 reflector + CMO.
Z84 Calar Alto-Schmidt.  Observers M. Micheli, R. Kresken.  Measurers R.
    Kresken, M. Micheli, F. Ocana, L. Conversi.  0.8-m f/3 Schmidt + CCD.
Orbital elements:
2024 NH3                                                 Earth MOID = 0.0080 AU
Epoch 2024 Mar. 31.0 TT = JDT 2460400.5                 Veres                   
M 334.81008              (2000.0)            P               Q                  
n   0.50560359     Peri.  300.63686     -0.73480642     +0.67211039             
a   1.5604958      Node   281.76159     -0.58603992     -0.69684542             
e   0.4301440      Incl.    5.34832     -0.34149192     -0.25034792             
P   1.95           H   22.75          G   0.15           U   7                  
Residuals in seconds of arc
240706 F51  0.1+  0.0     240711 126  0.8+  0.4-    240712 Y05  0.2-  0.0
240706 F51  0.1-  0.0     240711 126  1.9+  0.2+    240712 Y05  0.3-  0.0
240706 F51  0.2+  0.0     240711 126  0.2-  0.5-    240712 858  0.0   0.1+
240706 F51  0.2-  0.0     240711 M45  0.2+  0.1-    240712 858  0.0   0.0
240711 T08  0.5-  0.1-    240711 G17 (1.3+  0.7+)   240712 858  0.0   0.1-
240711 T08  0.1+  0.2+    240711 M45  0.2+  0.3+    240712 U52  0.4-  0.5-
240711 T08  0.0   0.1+    240711 G17 (0.9+  0.9+)   240712 U52  0.9+  0.1+
240711 T08  0.2+  0.3-    240711 M45  0.2+  0.0     240712 474  0.1-  0.1+
240711 T08  0.2-  0.1+    240711 G17 (2.0+  0.6+)   240712 474  0.3-  0.1-
240711 T08  0.3-  0.3-    240711 595  0.0   0.2+    240712 474  0.1-  0.2+
240711 L01  0.2-  0.4-    240711 595  0.4+  0.4-    240712 474  0.3-  0.1-
240711 L01 (0.6+  0.8+)   240712 807  0.1-  0.1-    240712 900  0.0   0.1-
240711 L01  0.1-  0.3+    240712 807  0.0   0.0     240712 Q06  0.1-  0.3-
240711 L01  0.4-  0.2-    240712 807  0.1+  0.0     240712 900  0.3-  0.4+
240711 106  0.9-  0.3+    240712 H21  0.2+  0.1+    240712 Q06  0.9-  0.1+
240711 106  0.0   0.6-    240712 H21  0.5+  0.3+    240712 Q06  0.2-  0.0
240711 106  0.3-  0.0     240712 H21  0.4+  0.0     240712 Q06  0.6-  0.4+
240711 106  1.5+  0.1-    240712 H21  0.0   0.4+    240712 Q06  0.4-  0.2+
240711 Z84  0.0   0.1-    240712 H21  0.1+  0.1-    240712 Q06  0.2-  0.2-
240711 Z84  0.4+  0.1+    240712 Y05  0.0   0.1+
Ephemeris:
2024 NH3                 a,e,i = 1.56, 0.43, 5                   q = 0.8893
Date    TT    R. A. (2000) Decl.     Delta      r    Elong.  Phase     V
2024 06 12    08 42 07.9 +02 21 46   0.1532  0.9308    52.7   119.7    23.3
...
2024 06 27    10 38 53.9 -06 24 32   0.06543 0.9949    68.9   107.6    20.8
...
2024 07 05    14 16 08.9 -15 57 08   0.04841 1.0373   114.0    63.6    18.5
...
2024 07 11    16 45 33.4 -15 07 13   0.06864 1.0719   142.5    35.3    18.5
2024 07 12    17 00 56.9 -14 41 28   0.07376 1.0778   145.0    32.8    18.6
2024 07 13    17 14 19.1 -14 16 25   0.07917 1.0838   147.0    30.7    18.7
...
2024 07 19    18 06 38.0 -12 19 52   0.1158  1.1205   152.9    24.4    19.4
...
2024 07 27    18 40 46.3 -11 02 31   0.1714  1.1713   153.4    22.8    20.4
...
2024 08 11    19 12 38.1 -10 26 57   0.2910  1.2691   147.7    25.2    21.7
M. P. C. Staff               (C) Copyright 2024 MPC           M.P.E.C. 2024-N135
    
    
More information about the Iaude
mailing list